This is the latest recevied weather packets stored in our database for station/object KD7MPG-3. If no packets are shown the sender has not sent any weather packets the latest 1 day(s).
| Time | Temp. | Humidity | Pressure | Rain* | Wind** | Luminosity | Snow |
|---|---|---|---|---|---|---|---|
| 1777989235 | 12.22° C | 89% | 1024 hPa | 0 mm | 0.45 m/s, 223° | - | - |
| 1777988934 | 12.22° C | 89% | 1024.2 hPa | 0 mm | 0.45 m/s, 229° | - | - |
| 1777988630 | 12.22° C | 89% | 1024.1 hPa | 0 mm | 0.45 m/s, 229° | - | - |
| 1777988331 | 12.22° C | 89% | 1024.1 hPa | 0 mm | 0 m/s | - | - |
| 1777988031 | 12.22° C | 89% | 1024.1 hPa | 0 mm | 0 m/s | - | - |
| 1777987728 | 11.67° C | 89% | 1024.1 hPa | 0 mm | 0 m/s | - | - |
| 1777987429 | 11.67° C | 89% | 1024.1 hPa | 0 mm | 0 m/s | - | - |
| 1777987125 | 11.67° C | 89% | 1024 hPa | 0 mm | 0 m/s | - | - |
| 1777986824 | 11.67° C | 89% | 1024.1 hPa | 0 mm | 0 m/s | - | - |
| 1777986525 | 11.67° C | 89% | 1024 hPa | 0 mm | 0 m/s | - | - |
| 1777986224 | 11.67° C | 89% | 1024 hPa | 0 mm | 0 m/s | - | - |
| 1777985922 | 11.67° C | 89% | 1024 hPa | 0 mm | 0.45 m/s, 227° | - | - |
| 1777985623 | 12.22° C | 89% | 1024 hPa | 0 mm | 0.45 m/s, 235° | - | - |
| 1777985320 | 12.22° C | 89% | 1023.8 hPa | 0 mm | 0.45 m/s, 269° | - | - |
| 1777985020 | 12.22° C | 89% | 1023.8 hPa | 0 mm | 0.89 m/s, 222° | - | - |
| 1777984721 | 12.22° C | 89% | 1023.8 hPa | 0 mm | 0.45 m/s, 269° | - | - |
| 1777984418 | 12.22° C | 89% | 1023.8 hPa | 0 mm | 0.45 m/s, 234° | - | - |
| 1777984116 | 12.22° C | 89% | 1023.9 hPa | 0 mm | 0.45 m/s, 231° | - | - |
| 1777983817 | 12.22° C | 89% | 1023.8 hPa | 0 mm | 0.45 m/s, 238° | - | - |
| 1777983512 | 12.22° C | 89% | 1023.9 hPa | 0 mm | 0.45 m/s, 235° | - | - |
| 1777983212 | 12.22° C | 89% | 1023.8 hPa | 0 mm | 0.89 m/s, 227° | - | - |
| 1777982913 | 12.22° C | 89% | 1023.8 hPa | 0 mm | 0.89 m/s, 229° | - | - |
| 1777982612 | 12.22° C | 89% | 1023.6 hPa | 0 mm | 0.89 m/s, 211° | - | - |
| 1777982309 | 12.22° C | 89% | 1023.7 hPa | 0 mm | 0.89 m/s, 265° | - | - |
| 1777982010 | 12.22° C | 88% | 1023.7 hPa | 0 mm | 0.45 m/s, 259° | - | - |
* Rain latest hour (hover to see other rain measurements)
** Current wind speed in m/s (hover to see current wind gust speed)